Location: *
(49.5667°N, 1.3667°W)
Time: 03:30:25
(UTC+00:00)

Cosmos 1441 Rocket - Pass Details

Date: 20 September 2019
Orbit: 496 x 541 km, 81.1° (Epoch: 18 October)

Event Time Altitude Azimuth Distance (km) Brightness Sun altitude
Rises 19:12:19 0° 194° (SSW) 2,620 6.8 -11.0°
Reaches altitude 10° 19:14:27 10° 196° (SSW) 1,731 5.9 -11.4°
Maximum altitude 19:18:14 76° 282° (WNW) 529 3.3 -12.0°
Drops below altitude 10° 19:22:01 10° 9° (N) 1,724 5.9 -12.5°
Sets 19:24:09 0° 11° (NNE) 2,608 6.9 -12.9°
